Regional Weather Roundup
Issued by NWS

Home | Current Version | Previous Version | Text Only | Print | Product List | Glossary Off
Versions: 1 2 3 4 5 6 7 8 9 10 11 12 13 14 15 16 17 18 19 20 21 22 23 24 25 26 27 28 29 30 31 32 33 34 35 36 37 38 39 40 41 42 43 44 45 46 47 48 49 50

000
ASUS43 KMPX 071301
RWRMN
WEATHER ROUNDUP FOR MINNESOTA
NATIONAL WEATHER SERVICE TWIN CITIES/CHANHASSEN MN
800 AM CDT TUE JUL 07 2015


NOTE: "FAIR" INDICATES FEW OR NO CLOUDS BELOW 12,000 FEET WITH NO
SIGNIFICANT WEATHER AND/OR OBSTRUCTIONS TO VISIBILITY. N/A MEANS
CURRENT SKY AND/OR WEATHER CONDITIONS ARE NOT AVAILABLE.

MNZ060>063-068>070-071400-
   Twin Cities Metro

CITY           SKY/WX    TMP DP  RH WIND       PRES   REMARKS
TWIN CITIES    MOSUNNY   57  44  62 N10G21    30.15R
ST PAUL        SUNNY     57  46  66 N10       30.15R
CRYSTAL        SUNNY     58  44  60 N12       30.15R
BLAINE           N/A     57  46  67 NW8       30.16R
LAKEVILLE      SUNNY     55  45  67 N9        30.14S
EDEN PRAIRIE   SUNNY     58  45  62 N10       30.14R
SOUTH ST PAUL  SUNNY     57  45  64 N8G17     30.14S
LAKE ELMO      FAIR      55  46  71 N8        30.16R
$$
MNZ001>005-007-008-013>017-022>024-027-028-071400-
   Northwest Minnesota

CITY           SKY/WX    TMP DP  RH WIND       PRES   REMARKS
BEMIDJI        SUNNY     52  47  83 NW5       30.18S
HALLOCK        SUNNY     52  48  87 SW3       30.17R
ROSEAU         SUNNY     55  48  76 W5        30.17R
WARROAD        SUNNY     54  46  76 W5        30.17R
THIEF RVR FALL SUNNY     54  46  76 CALM      30.19S
CROOKSTON      SUNNY     54  48  82 CALM      30.20R
FOSSTON        SUNNY     52  50  93 CALM      30.20R
DETROIT LAKES  SUNNY     54  48  82 NW3       30.20S
MOORHEAD       SUNNY     52  48  87 CALM      30.21S
PARK RAPIDS    SUNNY     56  45  66 N7        30.18S
MAHNOMEN       FAIR      49  46  92 CALM      30.19S
$$
MNZ006-009>011-018-025>026-071400-
   North Central Minnesota

CITY           SKY/WX    TMP DP  RH WIND       PRES   REMARKS
BAUDETTE       SUNNY     54  48  80 W6        30.16R
FLAG ISLAND    SUNNY     54  46  76 NW8       30.14R
INTL FALLS     SUNNY     55  48  77 W3        30.14R
WASKISH        SUNNY     57  48  72 NW5       30.17R
BIG FORK       SUNNY     54  48  82 CALM      30.17R
LONGVILLE      SUNNY     57  50  77 N5        30.16S
GRAND RAPIDS   SUNNY     55  46  71 NW8       30.17R
CRANE LAKE     SUNNY     52  48  87 CALM      30.15R
COOK           SUNNY     52  46  82 W3        30.16R
WALKER         FAIR      49  46  86 NW3       30.17S
$$
MNZ012-019>021-037-071400-
   Northeast Minnesota

CITY           SKY/WX    TMP DP  RH WIND       PRES   REMARKS
DULUTH         MOSUNNY   56  45  66 N10       30.14R
ELY            SUNNY     55  46  71 NW3       30.14R
HIBBING        SUNNY     56  47  71 N6        30.15R
DULUTH HARBOR    N/A     61  50  67 N13       30.14R
TWO HARBORS    SUNNY     59  50  72 NW7       30.12R
SILVER BAY     SUNNY     59  48  67 NW6       30.11R
GRAND MARAIS     N/A     60  48  64 VRB6      30.09R
G MARAIS ARPRT SUNNY     54  43  66 NW9       30.10R
$$
MNZ029>031-032-039>041-046>048-054>057-064-071400-
   West Central Minnesota

CITY           SKY/WX    TMP DP  RH WIND       PRES   REMARKS
FERGUS FALLS   SUNNY     55  48  76 CALM      30.21R
WHEATON        SUNNY     54  48  82 NW5       30.23S
MORRIS         SUNNY     54  50  87 CALM      30.20R
ALEXANDRIA     SUNNY     56  49  77 N6        30.21R
ELBOW LAKE     FAIR      55  50  84 N3        30.20R
WADENA         MOSUNNY   54  46  76 N3        30.18S
GLENWOOD       SUNNY     55  48  76 N3        30.20R
APPLETON       SUNNY     55  50  82 N6        30.20S
BENSON         SUNNY     55  50  82 N3        30.21R
ORTONVILLE     SUNNY     54  46  76 N6        30.21S
MADISON        SUNNY     55  48  76 N7        30.20S
WILLMAR        FAIR      57  52  82 N6        30.21R
$$
MNZ033>034-036-042>043-049>051-058-059-071400-
   Central Minnesota

CITY           SKY/WX    TMP DP  RH WIND       PRES   REMARKS
ST CLOUD       SUNNY     55  48  77 N7        30.18R
SAUK CENTRE    FAIR      53  46  77 N5        30.20R
PAYNESVILLE    SUNNY     51  47  86 NW6       30.21R
AITKIN         SUNNY     55  46  71 CALM      30.15S
PINE RIVER     SUNNY     54  48  82 NW6       30.20S
BRAINERD       SUNNY     56  50  80 CALM      30.17R
STAPLES        SUNNY     54  46  76 N6        30.18S
LONG PRAIRIE   FAIR      52  45  76 NW5       30.20R
LITTLE FALLS   SUNNY     54  46  76 CALM      30.18S
LITCHFIELD     SUNNY     55  52  88 N9        30.19S
BUFFALO        SUNNY     56  45  67 N8        30.18R
MAPLE LAKE     SUNNY     57  50  76 N7        30.19R
$$
MNZ037-044-045-052-053-071400-
   East Central Minnesota

CITY           SKY/WX    TMP DP  RH WIND       PRES   REMARKS
PRINCETON      SUNNY     55  48  76 CALM      30.17S
MORA           SUNNY     55  45  67 CALM      30.18S
CAMBRIDGE      SUNNY     57  45  62 N5        30.15R
RUSH CITY      MOSUNNY   52  46  78 N7        30.16R
MOOSE LAKE     SUNNY     54  45  71 CALM      30.14R
HINCKLEY       PTSUNNY   54  46  76 N5        30.16R
CLOQUET        SUNNY     54  45  71 N9G16     30.15R
MCGREGOR       SUNNY     54  48  82 NW6       30.17R
$$
MNZ071>073-080-081-089-090-097-098-071400-
   Southwest Minnesota

CITY           SKY/WX    TMP DP  RH WIND       PRES   REMARKS
MONTEVIDEO     SUNNY     57  52  82 NE8         N/A
GRANITE FALLS  SUNNY     55  49  83 N5        30.21S
CANBY          SUNNY     53  49  85 NW5       30.22S
MARSHALL       SUNNY     54  46  76 N8          N/A
REDWOOD FALLS  SUNNY     56  49  77 N8        30.19R
OLIVIA         SUNNY     52  46  82 N10       30.18S
PIPESTONE      SUNNY     54  48  82 NE7       30.19S
WINDOM         SUNNY     54  48  82 N14G20    30.18R
WORTHINGTON    SUNNY     54  46  76 N10       30.19R
JACKSON        SUNNY     54  50  87 N13       30.18R
TRACY          SUNNY     54  51  88 N7        30.20R
SLAYTON        SUNNY     53  50  90 CALM      30.20R
$$
MNZ065>067-074>077-082>085-091>093-071400-
   South Central Minnesota

CITY           SKY/WX    TMP DP  RH WIND       PRES   REMARKS
MANKATO        SUNNY     55  48  76 N13       30.16R
NEW ULM        SUNNY     55  46  71 N7        30.17R
ST JAMES         N/A     55  52  88 N10       30.18R
FAIRMONT       SUNNY     54  45  71 N10G16    30.16R
GLENCOE        SUNNY     56  50  82 N9        30.16S
OWATONNA       SUNNY     55  46  71 N8G17     30.14R
WASECA         SUNNY     55  46  71 N13       30.16R
ALBERT LEA     SUNNY     55  50  82 N5        30.14R
$$
MNZ078>079-086>088-094>096-071400-
   Southeast Minnesota

CITY           SKY/WX    TMP DP  RH WIND       PRES   REMARKS
ROCHESTER      SUNNY     56  48  74 N10       30.13R
RED WING       MOSUNNY   57  48  72 N3        30.12R
DODGE CENTER   MOSUNNY   55  50  82 N9        30.12R
WINONA         SUNNY     59  48  67 N3        30.11R
AUSTIN         SUNNY     57  50  77 N10G16    30.12R
PRESTON        SUNNY     54  48  80 N8        30.12R
$$
ABBREVIATIONS USED IN REMARKS
   TC - TEMPERATURES IN CELSIUS
  WCI - WIND CHILL INDEX
   HX - HEAT INDEX
  VSB - VISIBILITY
$$


USA.gov is the U.S. government's official web portal to all federal, state and local government web resources and services.